Voltar ao catálogo

CZ-6A DEB

AtivoPO
NORAD 61308·DEBRIS·🇨🇳 China

Lançado Aug 6, 2024 de Taiyuan Satellite Launch Center

Loading…

Próximas Passagens (próximas 24 horas)

TLE

AtualizadoSource: Space-Track

Época: Sep 14, 2026, 09:44 UTC

1 61308U 24140TV  26257.40557902  .00001876  00000-0  32376-3 0  9999
2 61308  88.8954 248.7775 0125611 292.5669  66.2293 14.62973082109074

Acompanhe CZ-6A DEB em tempo real com AllMySat

Download on the App Store